EW9200 Weather Reports


Display with metric or nautical units.
time (UTC)temp
F
wind
direction
speed
MPH
gust
MPH
rain 1hr
in
rain 24hr
in
rain mn
in
humidity
%
barometer
mb
20260507182529 57 177 6.0 13.0 0.00 0.00 0.00 59 1012.5
20260507182030 57 300 4.0 15.0 0.00 0.00 0.00 56 1012.5
20260507181543 57 164 5.0 15.0 0.00 0.00 0.00 56 1012.7
20260507181031 57 242 6.0 12.0 0.00 0.00 0.00 54 1012.5
20260507180529 57 217 5.0 12.0 0.00 0.00 0.00 53 1012.4
20260507180042 58 194 5.0 13.0 0.00 0.00 0.00 51 1012.7
20260507175528 58 311 4.0 13.0 0.00 0.00 0.00 50 1012.5
20260507175028 57 187 6.0 13.0 0.00 0.00 0.00 51 1012.4
20260507174544 57 221 3.0 12.0 0.00 0.00 0.00 51 1012.7
20260507174027 57 150 5.0 12.0 0.00 0.00 0.00 50 1012.7
20260507173533 57 302 3.0 9.0 0.00 0.00 0.00 51 1012.9
20260507173041 57 240 3.0 8.0 0.00 0.00 0.00 48 1012.7
20260507172529 57 51 4.0 8.0 0.00 0.00 0.00 46 1012.8
20260507172028 57 78 3.0 12.0 0.00 0.00 0.00 47 1012.8
20260507171548 57 11 2.0 12.0 0.00 0.00 0.00 47 1013.0
20260507171028 58 227 3.0 10.0 0.00 0.00 0.00 46 1013.2
20260507170527 58 244 3.0 9.0 0.00 0.00 0.00 48 1013.3
20260507170044 58 259 4.0 11.0 0.00 0.00 0.00 47 1013.2
20260507165529 58 199 4.0 11.0 0.00 0.00 0.00 48 1013.2
20260507165027 58 217 1.0 9.0 0.00 0.00 0.00 47 1013.3
20260507164541 58 231 3.0 9.0 0.00 0.00 0.00 48 1013.3
20260507164028 58 195 4.0 9.0 0.00 0.00 0.00 46 1013.4
20260507163531 58 214 2.0 7.0 0.00 0.00 0.00 47 1013.5
20260507163043 59 314 3.0 7.0 0.00 0.00 0.00 47 1013.6
20260507162527 59 240 1.0 5.0 0.00 0.00 0.00 50 1013.8
20260507162028 58 134 3.0 7.0 0.00 0.00 0.00 49 1013.8
20260507161546 58 283 1.0 7.0 0.00 0.00 0.00 48 1013.9
20260507161028 58 243 2.0 9.0 0.00 0.00 0.00 52 1013.9
20260507160530 58 213 3.0 9.0 0.00 0.00 0.00 49 1014.1
20260507160048 58 174 2.0 6.0 0.00 0.00 0.00 51 1014.0
20260507155531 57 223 3.0 8.0 0.00 0.00 0.00 50 1014.2
20260507155028 57 314 2.0 9.0 0.00 0.00 0.00 51 1014.3
20260507154542 56 193 3.0 9.0 0.00 0.00 0.00 53 1014.3
20260507154030 56 170 2.0 8.0 0.00 0.00 0.00 51 1014.5
20260507153528 56 221 3.0 10.0 0.00 0.00 0.00 50 1014.5
20260507153042 56 210 4.0 10.0 0.00 0.00 0.00 51 1014.4
20260507152528 56 127 2.0 8.0 0.00 0.00 0.00 53 1014.4
20260507152028 56 136 3.0 8.0 0.00 0.00 0.00 50 1014.5
20260507151536 55 357 1.0 7.0 0.00 0.00 0.00 52 1014.5
20260507151028 55 141 1.0 7.0 0.00 0.00 0.00 55 1014.6
20260507150528 55 136 2.0 4.0 0.00 0.00 0.00 53 1014.5
20260507150043 55 230 1.0 8.0 0.00 0.00 0.00 52 1014.6
20260507145527 54 145 2.0 8.0 0.00 0.00 0.00 49 1014.6
20260507145029 54 205 1.0 5.0 0.00 0.00 0.00 54 1014.7
20260507144543 53 171 1.0 5.0 0.00 0.00 0.00 55 1014.9
20260507144031 53 259 2.0 5.0 0.00 0.00 0.00 53 1015.0
20260507143528 53 174 2.0 6.0 0.00 0.00 0.00 56 1015.1
20260507143043 52 215 1.0 6.0 0.00 0.00 0.00 54 1015.1
20260507142527 52 179 2.0 6.0 0.00 0.00 0.00 56 1015.2
20260507142030 52 150 3.0 6.0 0.00 0.00 0.00 55 1015.2
20260507141543 52 188 3.0 6.0 0.00 0.00 0.00 56 1015.4
20260507141029 52 179 2.0 6.0 0.00 0.00 0.00 56 1015.3
20260507140528 51 267 1.0 6.0 0.00 0.00 0.00 59 1015.3
20260507140039 51 214 1.0 6.0 0.00 0.00 0.00 59 1015.1
20260507135530 51 153 2.0 5.0 0.00 0.00 0.00 56 1015.2
20260507135030 51 188 2.0 5.0 0.00 0.00 0.00 57 1015.3
20260507134541 51 227 1.0 4.0 0.00 0.00 0.00 58 1015.3
20260507134028 50 178 1.0 4.0 0.00 0.00 0.00 59 1015.4
20260507133528 49 229 2.0 4.0 0.00 0.00 0.00 59 1015.6
20260507133044 49 243 1.0 3.0 0.00 0.00 0.00 59 1015.6
20260507132527 49 208 1.0 4.0 0.00 0.00 0.00 63 1015.7
20260507132027 49 140 1.0 4.0 0.00 0.00 0.00 65 1015.7
20260507131603 49 139 1.0 2.0 0.00 0.00 0.00 66 1015.7
20260507131029 48 172 0.0 2.0 0.00 0.00 0.00 67 1015.7
20260507130528 48 211 0.0 2.0 0.00 0.00 0.00 64 1015.9
20260507130042 48 194 0.0 2.0 0.00 0.00 0.00 70 1015.6
20260507125528 47 0 0.0 1.0 0.00 0.00 0.00 72 1015.7
20260507125029 47 0 0.0 1.0 0.00 0.00 0.00 71 1015.8
20260507124535 46 0 0.0 1.0 0.00 0.00 0.00 71 1015.7
20260507124029 46 0 0.0 1.0 0.00 0.00 0.00 72 1015.6
20260507123527 45 0 0.0 0.0 0.00 0.00 0.00 76 1015.6
20260507123044 44 0 0.0 0.0 0.00 0.00 0.00 79 1015.5
20260507122526 43 0 0.0 0.0 0.00 0.00 0.00 83 1015.3
20260507122029 41 0 0.0 0.0 0.00 0.00 0.00 90 1015.2
20260507121544 39 0 0.0 1.0 0.00 0.00 0.00 94 1015.4
20260507121028 37 0 0.0 1.0 0.00 0.00 0.00 97 1015.2
20260507120527 35 0 0.0 0.0 0.00 0.00 0.00 97 1015.2
20260507120042 34 0 0.0 0.0 0.00 0.00 0.00 97 1015.3
20260507115529 33 0 0.0 0.0 0.00 0.00 0.00 96 1015.3
20260507115032 32 0 0.0 0.0 0.00 0.00 0.00 96 1015.3
20260507114541 32 0 0.0 0.0 0.00 0.00 0.00 96 1015.2
20260507114029 31 0 0.0 0.0 0.00 0.00 0.00 96 1015.3
20260507113529 31 0 0.0 0.0 0.00 0.00 0.00 96 1015.4
20260507113036 31 0 0.0 0.0 0.00 0.00 0.00 95 1015.3
20260507112527 30 0 0.0 0.0 0.00 0.00 0.00 95 1015.1
20260507112027 30 0 0.0 0.0 0.00 0.00 0.00 95 1015.3
20260507111542 30 0 0.0 0.0 0.00 0.00 0.00 95 1015.2
20260507111030 30 0 0.0 0.0 0.00 0.00 0.00 95 1015.2
20260507110530 30 0 0.0 0.0 0.00 0.00 0.00 95 1015.2
20260507110041 30 0 0.0 0.0 0.00 0.00 0.00 95 1015.2
20260507105530 29 0 0.0 0.0 0.00 0.00 0.00 95 1015.1
20260507105030 29 0 0.0 0.0 0.00 0.00 0.00 94 1015.1
20260507104540 29 0 0.0 0.0 0.00 0.00 0.00 94 1015.1
20260507104030 29 0 0.0 0.0 0.00 0.00 0.00 94 1015.2
20260507103531 29 0 0.0 0.0 0.00 0.00 0.00 94 1015.1
20260507103045 29 0 0.0 2.0 0.00 0.00 0.00 94 1015.1
20260507102531 29 0 0.0 2.0 0.00 0.00 0.00 94 1015.2
20260507102032 29 0 0.0 0.0 0.00 0.00 0.00 93 1015.2
20260507101544 29 0 0.0 0.0 0.00 0.00 0.00 93 1015.3
20260507101030 30 0 0.0 0.0 0.00 0.00 0.00 93 1015.2
20260507100533 30 0 0.0 0.0 0.00 0.00 0.00 93 1015.4
20260507100049 30 0 0.0 0.0 0.00 0.00 0.00 93 1015.3
20260507095531 30 0 0.0 0.0 0.00 0.00 0.00 93 1015.3
20260507095032 30 0 0.0 0.0 0.00 0.00 0.00 93 1015.3
20260507094548 30 0 0.0 0.0 0.00 0.00 0.00 93 1015.3
20260507094030 30 0 0.0 0.0 0.00 0.00 0.00 93 1015.2
20260507093530 30 0 0.0 0.0 0.00 0.00 0.00 92 1015.4
20260507093049 30 0 0.0 0.0 0.00 0.00 0.00 92 1015.4
20260507092527 30 0 0.0 0.0 0.00 0.00 0.00 92 1015.5
20260507092031 30 0 0.0 0.0 0.00 0.00 0.00 92 1015.4
20260507091538 31 0 0.0 0.0 0.00 0.00 0.00 92 1015.5
20260507091031 31 0 0.0 0.0 0.00 0.00 0.00 92 1015.5
20260507090530 31 0 0.0 0.0 0.00 0.00 0.00 91 1015.5
20260507090043 31 0 0.0 0.0 0.00 0.00 0.00 91 1015.7
20260507085531 31 0 0.0 0.0 0.00 0.00 0.00 91 1015.6
20260507085031 31 0 0.0 0.0 0.00 0.00 0.00 91 1015.5
20260507084546 31 0 0.0 0.0 0.00 0.00 0.00 91 1015.4
20260507084030 31 0 0.0 0.0 0.00 0.00 0.00 90 1015.6
20260507083532 32 0 0.0 0.0 0.00 0.00 0.00 90 1015.5
20260507083041 32 0 0.0 0.0 0.00 0.00 0.00 90 1015.5
20260507082530 32 0 0.0 0.0 0.00 0.00 0.00 90 1015.4
20260507082030 32 0 0.0 0.0 0.00 0.00 0.00 90 1015.4
20260507081543 31 0 0.0 0.0 0.00 0.00 0.00 88 1015.5
20260507081032 32 0 0.0 0.0 0.00 0.00 0.00 87 1015.3
20260507080531 32 0 0.0 0.0 0.00 0.00 0.00 87 1015.4
20260507080042 32 0 0.0 0.0 0.00 0.00 0.00 87 1015.4
20260507075529 33 0 0.0 0.0 0.00 0.00 0.00 87 1015.4
20260507075029 33 0 0.0 0.0 0.00 0.00 0.00 86 1015.3
20260507074542 33 0 0.0 0.0 0.00 0.00 0.00 86 1015.3
20260507074029 33 0 0.0 0.0 0.00 0.00 0.00 86 1015.2
20260507073529 33 0 0.0 0.0 0.00 0.00 0.00 86 1015.1
20260507073043 33 0 0.0 0.0 0.00 0.00 0.00 85 1015.4
20260507072528 33 0 0.0 0.0 0.00 0.00 0.00 86 1015.4
20260507072028 33 0 0.0 0.0 0.00 0.00 0.00 86 1015.3
20260507071601 33 0 0.0 0.0 0.00 0.00 0.00 85 1015.3
20260507071027 34 0 0.0 0.0 0.00 0.00 0.00 86 1015.3
20260507070528 34 0 0.0 0.0 0.00 0.00 0.00 86 1015.3
20260507070044 34 0 0.0 0.0 0.00 0.00 0.00 86 1015.5
20260507065533 34 0 0.0 0.0 0.00 0.00 0.00 86 1015.5
20260507065028 34 0 0.0 0.0 0.00 0.00 0.00 86 1015.6
20260507064540 34 0 0.0 0.0 0.00 0.00 0.00 86 1015.6
20260507064031 34 0 0.0 0.0 0.00 0.00 0.00 86 1015.7
20260507063528 34 0 0.0 0.0 0.00 0.00 0.00 86 1015.7
20260507063045 34 0 0.0 0.0 0.00 0.00 0.00 86 1015.7
20260507062530 34 0 0.0 0.0 0.00 0.00 0.00 86 1015.8
20260507062028 34 0 0.0 0.0 0.00 0.00 0.00 86 1015.7
20260507061545 34 0 0.0 0.0 0.00 0.00 0.00 85 1015.6
20260507061026 34 0 0.0 0.0 0.00 0.00 0.00 85 1015.7
20260507060526 34 0 0.0 0.0 0.00 0.00 0.00 85 1015.7
20260507060042 34 0 0.0 0.0 0.00 0.00 0.00 85 1015.7
20260507055528 34 0 0.0 0.0 0.00 0.00 0.00 84 1015.7
20260507055026 35 0 0.0 0.0 0.00 0.00 0.00 83 1015.8
20260507054542 35 0 0.0 0.0 0.00 0.00 0.00 83 1015.7
20260507054027 35 0 0.0 0.0 0.00 0.00 0.00 82 1015.7
20260507053527 35 0 0.0 0.0 0.00 0.00 0.00 82 1015.7
20260507053109 35 0 0.0 0.0 0.00 0.00 0.00 82 1015.7
20260507052526 35 0 0.0 0.0 0.00 0.00 0.00 82 1015.7
20260507052027 35 0 0.0 0.0 0.00 0.00 0.00 81 1015.8
20260507051544 36 0 0.0 0.0 0.00 0.00 0.00 81 1015.7
20260507051028 36 0 0.0 0.0 0.00 0.00 0.00 80 1015.8
20260507050528 36 0 0.0 0.0 0.00 0.00 0.00 80 1015.8
20260507050046 36 0 0.0 0.0 0.00 0.00 0.00 80 1015.8
20260507045528 36 0 0.0 0.0 0.00 0.00 0.00 80 1015.7
20260507045027 36 0 0.0 0.0 0.00 0.00 0.00 80 1015.8
20260507044546 36 0 0.0 0.0 0.00 0.00 0.00 79 1015.8
20260507044030 37 0 0.0 0.0 0.00 0.00 0.00 79 1015.8
20260507043531 37 0 0.0 0.0 0.00 0.00 0.00 79 1015.9
20260507043044 37 0 0.0 0.0 0.00 0.00 0.00 79 1015.8
20260507042533 37 0 0.0 0.0 0.00 0.00 0.00 79 1015.8
20260507042030 37 0 0.0 0.0 0.00 0.00 0.00 78 1015.8
20260507041545 37 0 0.0 0.0 0.00 0.00 0.00 78 1015.7
20260507041030 37 0 0.0 0.0 0.00 0.00 0.00 78 1015.9
20260507040531 37 0 0.0 0.0 0.00 0.00 0.00 77 1015.8
20260507040045 38 0 0.0 0.0 0.00 0.00 0.00 75 1015.9
20260507035530 38 0 0.0 0.0 0.00 0.00 0.00 74 1015.8
20260507035030 38 0 0.0 0.0 0.00 0.00 0.00 73 1015.7
20260507034543 39 0 0.0 0.0 0.00 0.00 0.00 72 1015.8
20260507034031 39 0 0.0 0.0 0.00 0.00 0.00 71 1015.7
20260507033531 39 0 0.0 0.0 0.00 0.00 0.00 71 1015.8
20260507033049 39 0 0.0 0.0 0.00 0.00 0.00 70 1015.8
20260507032531 40 0 0.0 0.0 0.00 0.00 0.00 69 1015.8
20260507032030 40 0 0.0 0.0 0.00 0.00 0.00 69 1015.8
20260507031540 41 0 0.0 0.0 0.00 0.00 0.00 68 1015.8
20260507031031 41 0 0.0 0.0 0.00 0.00 0.00 67 1015.8
20260507030531 41 0 0.0 0.0 0.00 0.00 0.00 67 1015.8
20260507030040 42 0 0.0 0.0 0.00 0.00 0.00 66 1015.7
20260507025530 42 0 0.0 0.0 0.00 0.00 0.00 66 1015.7
20260507025030 42 0 0.0 0.0 0.00 0.00 0.00 66 1015.6
20260507024541 42 0 0.0 1.0 0.00 0.00 0.00 65 1015.7
20260507024032 43 0 0.0 1.0 0.00 0.00 0.00 64 1015.6
20260507023531 43 0 0.0 1.0 0.00 0.00 0.00 63 1015.6
20260507023042 43 0 0.0 1.0 0.00 0.00 0.00 62 1015.5
20260507022531 44 0 0.0 1.0 0.00 0.00 0.00 61 1015.5
20260507022031 44 0 0.0 1.0 0.00 0.00 0.00 60 1015.4
20260507021543 45 0 0.0 1.0 0.00 0.00 0.00 59 1015.3
20260507021031 45 334 0.0 0.0 0.00 0.00 0.00 59 1015.4
20260507020532 45 0 0.0 1.0 0.00 0.00 0.00 58 1015.2
20260507020044 46 0 0.0 3.0 0.00 0.00 0.00 57 1015.1
20260507015530 46 0 0.0 3.0 0.00 0.00 0.00 56 1015.1
20260507015032 46 343 0.0 3.0 0.00 0.00 0.00 56 1015.1
20260507014548 47 37 1.0 3.0 0.00 0.00 0.00 55 1015.0
20260507014030 47 1 0.0 2.0 0.00 0.00 0.00 54 1015.0
20260507013531 47 0 0.0 4.0 0.00 0.00 0.00 54 1014.9
20260507013039 47 317 1.0 5.0 0.00 0.00 0.00 53 1014.8
20260507012530 48 360 1.0 9.0 0.00 0.00 0.00 52 1014.9
20260507012030 48 320 2.0 9.0 0.00 0.00 0.00 52 1014.7
20260507011542 48 356 4.0 8.0 0.00 0.00 0.00 51 1014.8
20260507011031 48 317 1.0 5.0 0.00 0.00 0.00 52 1014.7
20260507010530 49 38 1.0 7.0 0.00 0.00 0.00 51 1014.7
20260507010043 49 328 2.0 7.0 0.00 0.00 0.00 51 1014.8
20260507005531 49 311 2.0 6.0 0.00 0.00 0.00 50 1014.7
20260507005032 50 359 2.0 8.0 0.00 0.00 0.00 50 1014.7
20260507004544 50 341 2.0 8.0 0.00 0.00 0.00 49 1014.6
20260507004030 50 301 3.0 9.0 0.00 0.00 0.00 50 1014.7
20260507003530 50 313 1.0 9.0 0.00 0.00 0.00 50 1014.7
20260507003042 51 341 3.0 9.0 0.00 0.00 0.00 49 1014.8
20260507002530 51 345 2.0 9.0 0.00 0.00 0.00 49 1014.6
20260507002031 51 270 4.0 9.0 0.00 0.00 0.00 49 1014.6
20260507001546 51 323 2.0 15.0 0.00 0.00 0.00 48 1014.5
20260507001029 52 356 4.0 15.0 0.00 0.00 0.00 47 1014.3
20260507000530 52 323 3.0 9.0 0.00 0.00 0.00 47 1014.4
20260507000047 52 323 2.0 12.0 0.00 0.00 0.00 47 1014.2
20260506235529 52 28 4.0 12.0 0.00 0.00 0.00 47 1014.1
20260506235030 53 300 4.0 12.0 0.00 0.00 0.00 47 1014.3
20260506234545 53 293 5.0 11.0 0.00 0.00 0.00 46 1014.1
20260506234031 53 33 3.0 10.0 0.00 0.00 0.00 46 1014.1
20260506233532 53 40 4.0 9.0 0.00 0.00 0.00 46 1014.1
20260506233041 54 265 2.0 9.0 0.00 0.00 0.00 47 1014.1
20260506232529 54 313 4.0 11.0 0.00 0.00 0.00 46 1014.0
20260506232030 54 7 3.0 11.0 0.00 0.00 0.00 46 1013.9
20260506231538 55 6 2.0 11.0 0.00 0.00 0.00 46 1014.0
20260506231031 54 26 3.0 11.0 0.00 0.00 0.00 46 1013.9
20260506230531 54 340 4.0 11.0 0.00 0.00 0.00 45 1014.1
20260506230050 55 304 5.0 12.0 0.00 0.00 0.00 44 1013.8
20260506225530 55 354 3.0 12.0 0.00 0.00 0.00 46 1013.7
20260506225030 54 321 3.0 11.0 0.00 0.00 0.00 46 1013.7
20260506224542 55 330 3.0 11.0 0.00 0.00 0.00 45 1013.6
20260506224030 55 353 3.0 12.0 0.00 0.00 0.00 44 1013.6
20260506223527 55 249 4.0 12.0 0.00 0.00 0.00 44 1013.5
20260506223041 55 77 3.0 11.0 0.00 0.00 0.00 45 1013.5
20260506222533 55 24 3.0 14.0 0.00 0.00 0.00 44 1013.7
20260506222030 56 56 4.0 14.0 0.00 0.00 0.00 43 1013.7
20260506221542 56 348 3.0 13.0 0.00 0.00 0.00 44 1013.6
20260506221031 56 28 4.0 13.0 0.00 0.00 0.00 43 1013.6
20260506220529 56 285 4.0 13.0 0.00 0.00 0.00 42 1013.4
20260506220047 57 123 5.0 12.0 0.00 0.00 0.00 42 1013.5
20260506215531 57 253 3.0 11.0 0.00 0.00 0.00 44 1013.4
20260506215030 58 286 4.0 11.0 0.00 0.00 0.00 41 1013.5
20260506214551 58 173 4.0 13.0 0.00 0.00 0.00 41 1013.4
20260506214030 58 140 2.0 13.0 0.00 0.00 0.00 43 1013.3
20260506213529 57 311 4.0 13.0 0.00 0.00 0.00 43 1013.3
20260506213042 57 345 4.0 12.0 0.00 0.00 0.00 42 1013.4
20260506212530 57 19 5.0 12.0 0.00 0.00 0.00 43 1013.4
20260506212030 56 22 4.0 11.0 0.00 0.00 0.00 44 1013.4
20260506211540 57 259 4.0 11.0 0.00 0.00 0.00 43 1013.4
20260506211030 57 301 4.0 11.0 0.00 0.00 0.00 41 1013.3
20260506210531 58 340 2.0 14.0 0.00 0.00 0.00 40 1013.3
20260506210041 58 34 4.0 14.0 0.00 0.00 0.00 42 1013.5
20260506205530 58 288 2.0 11.0 0.00 0.00 0.00 44 1013.5
20260506205033 58 189 4.0 15.0 0.00 0.00 0.00 41 1013.4
20260506204544 57 206 5.0 15.0 0.00 0.00 0.00 42 1013.6
20260506204029 58 279 4.0 15.0 0.00 0.00 0.00 41 1013.5
20260506203531 58 53 3.0 12.0 0.00 0.00 0.00 43 1013.4
20260506203035 58 325 3.0 9.0 0.00 0.00 0.00 42 1013.6
20260506202530 57 119 4.0 12.0 0.00 0.00 0.00 45 1013.5
20260506202031 57 319 5.0 12.0 0.00 0.00 0.00 41 1013.5
20260506201542 58 114 3.0 12.0 0.00 0.00 0.00 43 1013.5
20260506201029 58 321 3.0 7.0 0.00 0.00 0.00 42 1013.6
20260506200529 58 335 3.0 7.0 0.00 0.00 0.00 43 1013.5
20260506200044 57 296 3.0 7.0 0.00 0.00 0.00 42 1013.6
20260506195530 57 86 2.0 9.0 0.00 0.00 0.00 45 1013.6
20260506195030 57 255 3.0 9.0 0.00 0.00 0.00 43 1013.6
20260506194542 57 277 4.0 9.0 0.00 0.00 0.00 41 1013.7
20260506194031 57 148 2.0 8.0 0.00 0.00 0.00 45 1014.0
20260506193531 57 4 3.0 11.0 0.00 0.00 0.00 45 1013.9
20260506193040 57 125 4.0 11.0 0.00 0.00 0.00 43 1013.8
20260506192533 57 155 2.0 7.0 0.00 0.00 0.00 44 1013.9
20260506192030 58 18 2.0 12.0 0.00 0.00 0.00 42 1014.0
20260506191551 57 285 2.0 12.0 0.00 0.00 0.00 45 1013.9
20260506191031 57 239 3.0 12.0 0.00 0.00 0.00 44 1013.9
20260506190531 57 239 2.0 7.0 0.00 0.00 0.00 49 1014.0
20260506190042 55 226 2.0 9.0 0.00 0.00 0.00 48 1014.0
20260506185530 55 346 3.0 9.0 0.00 0.00 0.00 47 1014.0
20260506185030 55 281 3.0 9.0 0.00 0.00 0.00 47 1014.0
20260506184539 55 81 3.0 9.0 0.00 0.00 0.00 46 1014.0
20260506184031 55 271 3.0 8.0 0.00 0.00 0.00 46 1014.1
20260506183531 55 86 3.0 8.0 0.00 0.00 0.00 47 1014.1
20260506183048 55 286 3.0 8.0 0.00 0.00 0.00 48 1014.0